FENGYUN 1C DEB

Satellite information

Favourite Embed

Satellite Type and Status

DEBRISIN ORBIT

Key statistics

Satellite FENGYUN 1C DEB at a glance.

Uptime

9716

Days in orbit

Revolutions

≈ 14.3

Per day

Orbit

SSO

Sun Synchronous Orbit

Inclination

98.4

Latest

Satellite identification and parameters

Extended collection of information and parameters for FENGYUN 1C DEB.

Object identification

Identified? True

Debris? True

Object name: FENGYUN 1C DEB

International designator: 1999-025DMX

Object number (NORAD): 35167

Object ID (CCSDS): 35167

Country: PEOPLES REPUBLIC OF CHINA (PRC)

Current information (Y/N): Y

RCS size: SMALL

Orbital parameters

Period: 100.617 minutes

Inclination: 98.4487 deg

SMA: 7165.983 km

Apoapsis: 952.162 km

Periapsis: 623.534 km

RAAN: 341.3842 deg

Eccentricy: 0.02292974

Argument of periapsis: 199.7066 deg

Mean anomaly: 159.5149 deg

Mean motion: 14.31163112 rev/day

Mean motion (dot): 0.00001795 rev/day2

B* drag term: 0.00052381478 1/REarth

Two-line elements (TLE)

Creation date: Dec. 14, 2025, 6:24 p.m.

Reference frame: TEME

Reference center: EARTH

Epoch: Dec. 14, 2025, 5:22 a.m. UTC

TLE line 0: 0 FENGYUN 1C DEB

TLE line 1: 1 35167U 99025DMX 25348.22419376 .00001795 00000-0 52381-3 0 9997

TLE line 2: 2 35167 98.4487 341.3842 0229297 199.7066 159.5149 14.31163112700417

Live tracking on map

Real-time ground track for satellite FENGYUN 1C DEB.

In-orbit conjunctions

A list of the most updated potential collisions computed for object FENGYUN 1C DEB.

Target Orbit TCA Probability of collision Miss distance Type
SL-14 R/B LEO 2025-11-17 03:35:53 0.0001130648 547.0 (m) ROCKET BODY
SL-8 R/B LEO 2025-06-19 09:39:48 0.0005192839 170.0 (m) ROCKET BODY

Associated space launch

Chinese polar orbiting meteorological satellite

FENGYUN 1C DEB was lifted into orbit during the mission ‘Long March 4B | Feng Yun 1C’, on board a Long March 4B space rocket.

The launch took place on May 10, 1999, 1:33 a.m. from Launch Complex 7.

For more information about the launch, click the button.

Launch to space Long March 4B | Feng Yun 1C
Long March 4B | Feng Yun 1C

Agency: N/A

Status: Launch Successful

Launch date: May 10, 1999, 1:33 a.m. UTC

Rocket: Long March 4B

Launch pad: Launch Complex 7

Location: Taiyuan Satellite Launch Center, People's Republic of China

...

Latest news about this satellite

There are no fresh news available about this satellite. Check back as we update our databases every day.


Newsletter sign-up

Weekly statistics, charts and insights to help you stay on top of the space industry.